Погода в Степанцминде

Грузия     42°39′23″N   44°38′35″E
темп.,
°C
ветер,
м/с
пор.,
м/с
влажн.,
%
обл.,
%
осадки,
мм/ч
давл.,
гПа
погр.,
м
14 апреля, ср
ср1401:00−3ю568690 0.1 102083
04:00−2ю3492100 2.0 1018101
07:00−2ю349279 4.1 101798
10:000ссв1299100 5.9 1016279
13:000зюз03100100 3.4 1016258
16:00−1с1198100 6.6 1017245
19:00−2с009768 0.9 101996
22:00−7ююз229335 0.9 102426
15 апреля, чт
чт1501:00−7ююз43835 0.0 102430
04:00−9ююз43644 0.0 102528
07:00−7ююз43663 0.0 102535
10:00+1ю237014 0.0 1018443
13:00+1ю448632 0.0 1018831
16:00+2ю228293 0.2 1017868
19:000ю1190100 0.2 101916
22:00−3ююз3383100 0.2 102235
16 апреля, пт
пт1601:00−3ю4583100 0.0 102166
04:00−4ююз458392 0.0 102250
07:00−4ю45778 0.0 102354
10:00+3ю247529 0.0 1018681
13:00+3ю348264 0.2 1017858
16:00+4ю348259 0.6 1017678
19:00+1ю458533 0.1 1019177
22:00−1ю568846 0.1 1021135
17 апреля, сб
сб1701:00−1ю568862 0.0 1022161
04:00−1ю578994 0.0 1021177
07:00−1ю5687100 0.0 1020144
10:00+2ю2492100 0.0 1019461
13:00+2ююз2596100 0.2 1019413
16:00+2ююз2499100 0.6 1019387
19:00+1ю2499100 0.2 1020217
22:00+1ю3596100 0.3 1020287
18 апреля, вс
вс1801:00+2ю579393 0.0 1019296
04:00+1ю569079 0.0 1019308
07:00+2ю5792100 0.0 1018324
10:00+3ю569096 0.9 1017337
13:00+5ю358481 0.2 1017670
16:00+4ю5689100 0.2 1017316
19:00+4ююз348792 0.0 1018133
22:00+2ю349032 0.1 1019108